Cynthiana, KY (41031)

9:48 PM EST on February 08, 2016 (GMT -0500)
Waste Water Treatment Plant | | Change Station
CLOSE
Current Station
Personal Weather Station
Location: Paris, KY
Elevation: 794 ft
Nearby Weather Stations
Active Advisory: Winter Weather Advisory

Elev 794 ft 38.22 °N, 84.25 °W | Updated 7 minutes ago

Overcast
Overcast
27.7 °F
Feels Like 18 °F
N
11.4
Wind Variable Wind from West

Today
High -- | Low -- °F
--% Chance of Precip.
Yesterday
High -- | Low -- °F
Precip. -- in
Pressure 29.76 in
Visibility 4.0 miles
Clouds Mostly Cloudy 1200 ft
Overcast 3000 ft
Windchill 18 °F
Dew Point 24 °F
Humidity 86%
Rainfall 0.15 in
Snow Depth Not available.
7:36 AM 6:07 PM
New Moon, 0% visible
METAR KIOB 090230Z AUTO 31012G19KT 280V340 4SM -SN BKN012 OVC030 M01/M03 A2976 RMK AO2
Pressure 29.76 in
Visibility 4.0 miles
Clouds Mostly Cloudy 1200 ft
Overcast 3000 ft
Windchill 18 °F
Dew Point 24 °F
Humidity 86%
Rainfall 0.15 in
Snow Depth Not available.
7:36 AM 6:07 PM
New Moon, 0% visible
METAR KIOB 090230Z AUTO 31012G19KT 280V340 4SM -SN BKN012 OVC030 M01/M03 A2976 RMK AO2

10-Day Weather Forecast

Almanac

Astronomy

Feb. 08, 2016 Rise Set
Actual Time
Civil Twilight
Nautical Twilight
Astronomical Twilight
Moon
Length of Visible Light
Length of Day
Tomorrow will be .
, % of the Moon is Illuminated

Today's Extremes

State Highs State Lows

Community

WunderPhotos

Upload Photos

1,891,527 photos uploaded!

WunderBlog® & News

Nearby

Air Quality

  Air Quality AQ Index Pollutant
Not available.

Snow Depth

Station Depth Elevation

Earthquake Activity

City Distance Mag. Time & Date
Minimum magnitude displayed is 2.5.

Coastal Water Temperatures

Place Temperature

Stations

Nearby Weather Stations

Station Location Temp. Windchill Dew Point Humidity Wind Precip. Elev Updated Type
                   

Watches & Warnings

Winter Weather Advisory
Issued: 8:14 PM CST Feb. 8, 2016 – National Weather Service

... Winter Weather Advisory remains in effect until 6 PM EST /5 PM
CST/ Tuesday...

* timing... snow showers will continue through at least Tuesday
afternoon.

* Main impact... periods of moderate to briefly heavy snow
showers will impact travel at times. Roads may become slick
and snow covered... especially secondary and untreated
surfaces. 1 to 3 inches of snow accumulation is expected.

* Other impacts... gusty winds along with moderate snow showers
may reduce visibility at times. Also wet roadways may become
slick overnight as temperatures drop.

Precautionary/preparedness actions...

Research shows that more traffic accidents occur with an inch or
less of snow... before drivers realize that traction is reduced.
Don't become a statistic... slow down and leave extra distance
between vehicles.



Rjs/eer